EJU34MX LSGG-LPPR

Flight info

Callsign EJU34MX
Flight time 1h 42m
Altitude 31000
Route DEPUL T544 LSE DCT RUSIT DCT ESIDA DCT LERGA/N0445F370 DCT MINSO DCT NARAK DCT AGN DCT PIPOR DCT PPN DCT MIRPO DCT DGO DCT NEA DCT ZMR L155 ADORO DCT INKIT
Aircraft A319/M-SDE3FGHIRWY/LB1

Departure

Time 2026-05-07 19:06
Airport Geneva International Airport (LSGG)

Arrival

Time 2026-05-07 20:49
Airport Francisco de Sá Carneiro Airport (LPPR)
Time Latitude Longitude Altitude Speed Heading
2026-05-07 18:22 46.23283 6.10608 1400 ft 0 kts 181°
2026-05-07 19:00 46.23273 6.10601 1404 ft 2 kts 227°
2026-05-07 19:00 46.23265 6.10583 1400 ft 2 kts 234°
2026-05-07 19:00 46.23267 6.10547 1396 ft 4 kts 300°
2026-05-07 19:01 46.23290 6.10512 1393 ft 5 kts 304°
2026-05-07 19:01 46.23280 6.10465 1397 ft 5 kts 233°
2026-05-07 19:01 46.23250 6.10423 1399 ft 4 kts 224°
2026-05-07 19:01 46.23223 6.10385 1399 ft 6 kts 225°
2026-05-07 19:02 46.23189 6.10336 1400 ft 8 kts 225°
2026-05-07 19:02 46.23148 6.10275 1400 ft 9 kts 229°
2026-05-07 19:02 46.23090 6.10180 1405 ft 15 kts 227°
2026-05-07 19:02 46.23022 6.10079 1411 ft 13 kts 225°
2026-05-07 19:03 46.22964 6.09993 1412 ft 11 kts 225°
2026-05-07 19:03 46.22908 6.09912 1410 ft 13 kts 225°
2026-05-07 19:03 46.22837 6.09808 1418 ft 15 kts 225°
2026-05-07 19:03 46.22765 6.09702 1413 ft 14 kts 225°
2026-05-07 19:04 46.22697 6.09603 1418 ft 13 kts 225°
2026-05-07 19:04 46.22636 6.09515 1421 ft 12 kts 225°
2026-05-07 19:04 46.22582 6.09430 1416 ft 11 kts 231°
2026-05-07 19:04 46.22552 6.09334 1417 ft 10 kts 257°
2026-05-07 19:05 46.22552 6.09206 1417 ft 19 kts 279°
2026-05-07 19:05 46.22637 6.09183 1421 ft 13 kts 45°
2026-05-07 19:05 46.22745 6.09345 1421 ft 49 kts 45°
2026-05-07 19:05 46.23165 6.09956 1410 ft 119 kts 46°
2026-05-07 19:06 46.23881 6.11006 1498 ft 161 kts 45°
2026-05-07 19:06 46.25363 6.13209 2939 ft 152 kts 44°
2026-05-07 19:06 46.26121 6.14279 3551 ft 153 kts 44°
2026-05-07 19:07 46.26879 6.15364 4168 ft 154 kts 46°
2026-05-07 19:07 46.27635 6.16483 4706 ft 159 kts 46°
2026-05-07 19:07 46.28460 6.17708 5020 ft 181 kts 46°
2026-05-07 19:07 46.29398 6.19097 5306 ft 204 kts 46°
2026-05-07 19:08 46.30453 6.20659 5596 ft 230 kts 46°
2026-05-07 19:08 46.31634 6.22403 6006 ft 255 kts 46°
2026-05-07 19:08 46.32923 6.24307 6572 ft 273 kts 46°
2026-05-07 19:08 46.34297 6.26334 7345 ft 282 kts 46°
2026-05-07 19:09 46.35720 6.28276 8159 ft 289 kts 35°
2026-05-07 19:09 46.37618 6.29380 8973 ft 295 kts
2026-05-07 19:09 46.39663 6.29227 9817 ft 297 kts 342°
2026-05-07 19:09 46.41508 6.27932 10621 ft 295 kts 319°
2026-05-07 19:10 46.42852 6.25732 11453 ft 292 kts 296°
2026-05-07 19:10 46.43502 6.22970 12290 ft 291 kts 275°
2026-05-07 19:10 46.43364 6.19966 12596 ft 311 kts 252°
2026-05-07 19:10 46.42273 6.17202 13051 ft 325 kts 227°
2026-05-07 19:11 46.40417 6.15283 13720 ft 333 kts 206°
2026-05-07 19:11 46.38295 6.13885 14413 ft 337 kts 205°
2026-05-07 19:11 46.36134 6.12507 15106 ft 340 kts 205°
2026-05-07 19:11 46.33951 6.11132 15797 ft 344 kts 205°
2026-05-07 19:12 46.31746 6.09745 16469 ft 347 kts 205°
2026-05-07 19:12 46.29519 6.08338 17143 ft 351 kts 206°
2026-05-07 19:12 46.27270 6.06912 17819 ft 355 kts 206°
2026-05-07 19:12 46.24997 6.05467 18460 ft 359 kts 206°
2026-05-07 19:13 46.22706 6.04006 19050 ft 362 kts 206°
2026-05-07 19:13 46.20389 6.02534 19635 ft 365 kts 206°
2026-05-07 19:13 46.18111 6.00907 20220 ft 366 kts 214°
2026-05-07 19:13 46.16087 5.98679 20822 ft 367 kts 225°
2026-05-07 19:14 46.14413 5.95910 21414 ft 368 kts 236°
2026-05-07 19:14 46.12962 5.92860 22004 ft 371 kts 237°
2026-05-07 19:14 46.11496 5.89778 22611 ft 373 kts 236°
2026-05-07 19:14 46.10022 5.86689 23203 ft 376 kts 236°
2026-05-07 19:15 46.08529 5.83571 23754 ft 379 kts 236°
2026-05-07 19:15 46.07025 5.80439 24242 ft 381 kts 236°
2026-05-07 19:15 46.05508 5.77291 24730 ft 383 kts 236°
2026-05-07 19:15 46.03982 5.74131 25213 ft 385 kts 236°
2026-05-07 19:16 46.02451 5.70967 25673 ft 387 kts 236°
2026-05-07 19:16 46.00911 5.67784 26157 ft 388 kts 236°
2026-05-07 19:16 45.99345 5.64546 26628 ft 390 kts 236°
2026-05-07 19:16 45.97817 5.61383 27073 ft 392 kts 236°
2026-05-07 19:17 45.96252 5.58100 27545 ft 393 kts 237°
2026-05-07 19:17 45.94761 5.54812 27994 ft 395 kts 238°
2026-05-07 19:17 45.93288 5.51450 28453 ft 397 kts 239°
2026-05-07 19:17 45.91830 5.48075 28879 ft 399 kts 239°
2026-05-07 19:18 45.90362 5.44680 29304 ft 401 kts 239°
2026-05-07 19:18 45.88878 5.41270 29737 ft 403 kts 238°
2026-05-07 19:18 45.87384 5.37864 30148 ft 405 kts 238°
2026-05-07 19:18 45.85873 5.34443 30496 ft 407 kts 238°
2026-05-07 19:19 45.84350 5.31009 30818 ft 409 kts 238°
2026-05-07 19:19 45.82819 5.27574 31133 ft 411 kts 238°
2026-05-07 19:19 45.81272 5.24116 31449 ft 412 kts 238°
2026-05-07 19:19 45.79724 5.20656 31811 ft 413 kts 238°
2026-05-07 19:20 45.78177 5.17190 32255 ft 411 kts 238°
2026-05-07 19:20 45.76641 5.13747 32704 ft 410 kts 238°
2026-05-07 19:20 45.75102 5.10305 33165 ft 409 kts 238°
2026-05-07 19:20 45.73605 5.06858 33591 ft 408 kts 239°
2026-05-07 19:21 45.72192 5.03343 34017 ft 407 kts 241°
2026-05-07 19:21 45.70833 4.99791 34382 ft 406 kts 242°
2026-05-07 19:21 45.69502 4.96234 34727 ft 406 kts 242°
2026-05-07 19:21 45.68168 4.92675 35049 ft 406 kts 242°
2026-05-07 19:22 45.66821 4.89122 35342 ft 406 kts 242°
2026-05-07 19:22 45.65500 4.85557 35651 ft 406 kts 243°
2026-05-07 19:22 45.64221 4.81969 35960 ft 405 kts 243°
2026-05-07 19:22 45.62964 4.78359 36239 ft 405 kts 244°
2026-05-07 19:23 45.61714 4.74754 36503 ft 405 kts 243°
2026-05-07 19:23 45.60458 4.71149 36777 ft 405 kts 243°
2026-05-07 19:23 45.59194 4.67551 36998 ft 406 kts 243°
2026-05-07 19:23 45.57923 4.63961 37012 ft 404 kts 243°
2026-05-07 19:24 45.55363 4.56788 37010 ft 402 kts 243°
2026-05-07 19:24 45.52833 4.49733 37003 ft 402 kts 243°
2026-05-07 19:25 45.50270 4.42586 36999 ft 402 kts 243°
2026-05-07 19:25 45.47725 4.35502 36996 ft 402 kts 243°
2026-05-07 19:26 45.45177 4.28423 36999 ft 401 kts 243°
2026-05-07 19:26 45.42626 4.21349 37008 ft 401 kts 243°
2026-05-07 19:27 45.40068 4.14293 37008 ft 402 kts 242°
2026-05-07 19:27 45.37506 4.07235 37008 ft 402 kts 243°
2026-05-07 19:28 45.34938 4.00173 37013 ft 402 kts 242°
2026-05-07 19:28 45.32365 3.93114 37021 ft 402 kts 242°
2026-05-07 19:29 45.29788 3.86062 37024 ft 402 kts 242°
2026-05-07 19:29 45.27195 3.79018 37031 ft 402 kts 242°
2026-05-07 19:30 45.24345 3.72199 37020 ft 402 kts 235°
2026-05-07 19:30 45.21143 3.65699 37015 ft 402 kts 235°
2026-05-07 19:31 45.17932 3.59201 37015 ft 402 kts 235°
2026-05-07 19:31 45.14721 3.52699 37010 ft 402 kts 235°
2026-05-07 19:32 45.11508 3.46197 37001 ft 403 kts 235°
2026-05-07 19:32 45.08291 3.39715 37005 ft 403 kts 235°
2026-05-07 19:33 45.05581 3.34289 37011 ft 403 kts 235°
2026-05-07 19:33 45.02352 3.27813 37012 ft 403 kts 235°
2026-05-07 19:34 44.99128 3.21344 37019 ft 403 kts 235°
2026-05-07 19:34 44.95895 3.14884 37017 ft 403 kts 235°
2026-05-07 19:35 44.92653 3.08440 37009 ft 403 kts 235°
2026-05-07 19:35 44.89412 3.02002 37019 ft 403 kts 235°
2026-05-07 19:36 44.86164 2.95559 37011 ft 403 kts 234°
2026-05-07 19:36 44.82961 2.89076 37009 ft 403 kts 237°
2026-05-07 19:37 44.79927 2.82431 37003 ft 403 kts 238°
2026-05-07 19:37 44.76925 2.75763 37003 ft 403 kts 237°
2026-05-07 19:38 44.73877 2.69138 36987 ft 403 kts 237°
2026-05-07 19:38 44.70789 2.62487 36998 ft 404 kts 237°
2026-05-07 19:39 44.67713 2.55870 36984 ft 404 kts 237°
2026-05-07 19:39 44.64637 2.49253 36998 ft 404 kts 237°
2026-05-07 19:40 44.61559 2.42650 36999 ft 404 kts 237°
2026-05-07 19:40 44.58473 2.36055 36981 ft 404 kts 237°
2026-05-07 19:41 44.55382 2.29462 36987 ft 405 kts 237°
2026-05-07 19:41 44.52282 2.22864 36987 ft 406 kts 236°
2026-05-07 19:42 44.49169 2.16256 36976 ft 406 kts 236°
2026-05-07 19:42 44.46052 2.09655 36979 ft 407 kts 236°
2026-05-07 19:43 44.42920 2.03052 36976 ft 407 kts 236°
2026-05-07 19:43 44.39791 1.96455 36961 ft 407 kts 236°
2026-05-07 19:44 44.36664 1.89868 36975 ft 407 kts 236°
2026-05-07 19:44 44.33528 1.83281 36973 ft 407 kts 236°
2026-05-07 19:45 44.30376 1.76690 36960 ft 408 kts 236°
2026-05-07 19:45 44.27254 1.70069 36975 ft 409 kts 237°
2026-05-07 19:46 44.24202 1.63371 36960 ft 409 kts 237°
2026-05-07 19:46 44.21133 1.56630 36962 ft 409 kts 237°
2026-05-07 19:47 44.18067 1.49951 36973 ft 409 kts 237°
2026-05-07 19:47 44.14984 1.43285 36966 ft 409 kts 237°
2026-05-07 19:48 44.11891 1.36627 36964 ft 410 kts 237°
2026-05-07 19:48 44.08798 1.29976 36965 ft 410 kts 237°
2026-05-07 19:49 44.05698 1.23319 36967 ft 410 kts 237°
2026-05-07 19:49 44.02593 1.16673 36963 ft 410 kts 237°
2026-05-07 19:50 43.99488 1.10039 36971 ft 410 kts 237°
2026-05-07 19:50 43.96389 1.03408 36970 ft 409 kts 237°
2026-05-07 19:51 43.93282 0.96780 36966 ft 409 kts 237°
2026-05-07 19:51 43.90170 0.90170 36965 ft 409 kts 236°
2026-05-07 19:52 43.87097 0.83537 36965 ft 409 kts 238°
2026-05-07 19:52 43.84125 0.76585 36966 ft 409 kts 239°
2026-05-07 19:53 43.78357 0.63008 36979 ft 409 kts 239°
2026-05-07 19:53 43.72511 0.49534 36970 ft 408 kts 238°
2026-05-07 19:54 43.66615 0.35996 36976 ft 408 kts 238°
2026-05-07 19:54 43.60736 0.22578 36952 ft 409 kts 238°
2026-05-07 19:55 43.54843 0.09140 36961 ft 409 kts 238°
2026-05-07 19:55 43.48926 -0.04270 36962 ft 410 kts 238°
2026-05-07 19:56 43.42978 -0.17666 36939 ft 410 kts 238°
2026-05-07 19:56 43.37016 -0.31070 36947 ft 410 kts 238°
2026-05-07 19:57 43.31033 -0.44430 36955 ft 410 kts 238°
2026-05-07 19:57 43.25033 -0.57769 36961 ft 410 kts 238°
2026-05-07 19:58 43.19023 -0.71060 36968 ft 410 kts 238°
2026-05-07 19:58 43.13007 -0.84324 36988 ft 410 kts 238°
2026-05-07 19:59 43.06972 -0.97564 36992 ft 410 kts 238°
2026-05-07 19:59 43.00915 -1.10789 36975 ft 410 kts 239°
2026-05-07 20:00 42.94848 -1.23984 36992 ft 410 kts 239°
2026-05-07 20:00 42.88779 -1.37133 36978 ft 410 kts 239°
2026-05-07 20:01 42.82685 -1.50246 36961 ft 409 kts 239°
2026-05-07 20:01 42.76579 -1.63336 36961 ft 409 kts 239°
2026-05-07 20:02 42.71817 -1.77221 36957 ft 407 kts 254°
2026-05-07 20:02 42.68493 -1.91920 36977 ft 407 kts 253°
2026-05-07 20:03 42.65137 -2.06616 36967 ft 407 kts 254°
2026-05-07 20:03 42.61757 -2.21275 36965 ft 407 kts 253°
2026-05-07 20:04 42.58164 -2.35939 36957 ft 406 kts 253°
2026-05-07 20:04 42.54611 -2.50468 36967 ft 405 kts 253°
2026-05-07 20:05 42.51055 -2.64954 36964 ft 404 kts 253°
2026-05-07 20:05 42.47477 -2.79393 36957 ft 404 kts 253°
2026-05-07 20:06 42.44266 -2.91242 36960 ft 405 kts 248°
2026-05-07 20:06 42.39540 -3.05103 36962 ft 405 kts 248°
2026-05-07 20:07 42.34814 -3.18898 36967 ft 403 kts 249°
2026-05-07 20:07 42.30116 -3.32571 36973 ft 401 kts 249°
2026-05-07 20:08 42.25414 -3.46195 36970 ft 399 kts 249°
2026-05-07 20:08 42.20695 -3.59820 36971 ft 397 kts 249°
2026-05-07 20:09 42.15995 -3.73282 36976 ft 396 kts 249°
2026-05-07 20:10 42.08962 -3.93357 36975 ft 393 kts 249°
2026-05-07 20:10 42.04282 -4.06608 36976 ft 391 kts 249°
2026-05-07 20:11 41.99827 -4.19893 36970 ft 388 kts 251°
2026-05-07 20:11 41.95665 -4.33292 36966 ft 388 kts 251°
2026-05-07 20:12 41.91997 -4.44750 36960 ft 388 kts 251°
2026-05-07 20:12 41.89865 -4.51407 36948 ft 388 kts 251°
2026-05-07 20:13 41.87734 -4.58056 36947 ft 387 kts 251°
2026-05-07 20:13 41.85602 -4.64677 36969 ft 386 kts 250°
2026-05-07 20:14 41.83478 -4.71269 36972 ft 384 kts 250°
2026-05-07 20:14 41.81352 -4.77835 36971 ft 383 kts 250°
2026-05-07 20:15 41.79227 -4.84383 36967 ft 383 kts 250°
2026-05-07 20:15 41.77105 -4.90919 36966 ft 383 kts 250°
2026-05-07 20:16 41.74979 -4.97455 36957 ft 382 kts 250°
2026-05-07 20:16 41.69282 -5.14879 36958 ft 381 kts 250°
2026-05-07 20:17 41.60671 -5.40937 36928 ft 380 kts 249°
2026-05-07 20:17 41.53089 -5.64473 36902 ft 377 kts 259°
2026-05-07 20:18 41.52500 -5.71395 36910 ft 375 kts 266°
2026-05-07 20:18 41.52016 -5.78324 36923 ft 375 kts 265°
2026-05-07 20:19 41.51503 -5.85248 36929 ft 375 kts 265°
2026-05-07 20:19 41.50989 -5.92173 36931 ft 375 kts 265°
2026-05-07 20:20 41.50470 -5.99100 36925 ft 375 kts 265°
2026-05-07 20:20 41.49955 -6.06013 36926 ft 375 kts 265°
2026-05-07 20:21 41.49443 -6.12932 36925 ft 375 kts 264°
2026-05-07 20:21 41.48925 -6.19837 36926 ft 374 kts 264°
2026-05-07 20:22 41.48393 -6.26738 36923 ft 374 kts 264°
2026-05-07 20:22 41.47301 -6.33522 36923 ft 374 kts 257°
2026-05-07 20:23 41.46077 -6.40270 36738 ft 376 kts 257°
2026-05-07 20:23 41.45457 -6.43706 35600 ft 388 kts 257°
2026-05-07 20:23 41.44826 -6.47190 35229 ft 381 kts 257°
2026-05-07 20:23 41.44211 -6.50562 35000 ft 371 kts 257°
2026-05-07 20:24 41.43607 -6.53880 34570 ft 366 kts 256°
2026-05-07 20:24 41.42999 -6.57203 34130 ft 362 kts 256°
2026-05-07 20:24 41.42413 -6.60403 33680 ft 359 kts 256°
2026-05-07 20:24 41.41816 -6.63662 33247 ft 355 kts 256°
2026-05-07 20:25 41.41233 -6.66825 32827 ft 350 kts 256°
2026-05-07 20:25 41.40662 -6.69915 32420 ft 346 kts 256°
2026-05-07 20:25 41.40082 -6.73056 32006 ft 343 kts 256°
2026-05-07 20:25 41.39516 -6.76118 31610 ft 340 kts 256°
2026-05-07 20:26 41.38954 -6.79163 31222 ft 337 kts 256°
2026-05-07 20:26 41.38394 -6.82188 30830 ft 336 kts 256°
2026-05-07 20:26 41.37837 -6.85195 30454 ft 333 kts 256°
2026-05-07 20:26 41.37281 -6.88184 30074 ft 332 kts 255°
2026-05-07 20:27 41.36726 -6.91153 29671 ft 330 kts 255°
2026-05-07 20:27 41.36177 -6.94108 29306 ft 328 kts 255°
2026-05-07 20:27 41.35630 -6.97042 28946 ft 327 kts 255°
2026-05-07 20:27 41.35081 -6.99975 28594 ft 326 kts 255°
2026-05-07 20:28 41.34533 -7.02894 28240 ft 325 kts 255°
2026-05-07 20:28 41.33985 -7.05811 27898 ft 324 kts 255°
2026-05-07 20:28 41.33440 -7.08717 27544 ft 324 kts 255°
2026-05-07 20:28 41.32898 -7.11621 27189 ft 323 kts 255°
2026-05-07 20:29 41.32356 -7.14515 26836 ft 322 kts 255°
2026-05-07 20:29 41.31813 -7.17398 26467 ft 321 kts 255°
2026-05-07 20:29 41.31269 -7.20271 26101 ft 320 kts 255°
2026-05-07 20:29 41.30725 -7.23137 25738 ft 320 kts 254°
2026-05-07 20:30 41.30180 -7.26005 25347 ft 320 kts 254°
2026-05-07 20:30 41.29637 -7.28869 24958 ft 319 kts 254°
2026-05-07 20:30 41.29095 -7.31721 24577 ft 318 kts 254°
2026-05-07 20:30 41.28553 -7.34573 24177 ft 318 kts 254°
2026-05-07 20:31 41.28011 -7.37420 23780 ft 317 kts 254°
2026-05-07 20:31 41.27468 -7.40262 23356 ft 317 kts 253°
2026-05-07 20:31 41.26926 -7.43100 22920 ft 316 kts 253°
2026-05-07 20:31 41.26384 -7.45928 22531 ft 315 kts 253°
2026-05-07 20:32 41.25843 -7.48746 22143 ft 314 kts 253°
2026-05-07 20:32 41.25299 -7.51584 21757 ft 312 kts 253°
2026-05-07 20:32 41.24769 -7.54343 21371 ft 311 kts 253°
2026-05-07 20:32 41.24227 -7.57160 20988 ft 310 kts 253°
2026-05-07 20:33 41.23693 -7.59924 20627 ft 309 kts 253°
2026-05-07 20:33 41.23157 -7.62688 20239 ft 308 kts 252°
2026-05-07 20:33 41.22622 -7.65439 19865 ft 308 kts 252°
2026-05-07 20:33 41.22088 -7.68191 19492 ft 307 kts 252°
2026-05-07 20:34 41.21556 -7.70935 19122 ft 308 kts 252°
2026-05-07 20:34 41.21022 -7.73692 18748 ft 308 kts 252°
2026-05-07 20:34 41.20490 -7.76447 18385 ft 308 kts 252°
2026-05-07 20:34 41.19954 -7.79204 17979 ft 308 kts 252°
2026-05-07 20:35 41.19418 -7.81957 17596 ft 307 kts 252°
2026-05-07 20:35 41.18886 -7.84693 17235 ft 306 kts 252°
2026-05-07 20:35 41.18352 -7.87421 16870 ft 305 kts 252°
2026-05-07 20:35 41.17687 -7.90076 16516 ft 301 kts 243°
2026-05-07 20:36 41.16807 -7.92596 16157 ft 300 kts 242°
2026-05-07 20:36 41.15930 -7.95107 15801 ft 300 kts 242°
2026-05-07 20:36 41.15057 -7.97617 15460 ft 300 kts 242°
2026-05-07 20:36 41.14184 -8.00133 15100 ft 300 kts 242°
2026-05-07 20:37 41.13315 -8.02642 14747 ft 300 kts 242°
2026-05-07 20:37 41.12443 -8.05157 14398 ft 300 kts 242°
2026-05-07 20:37 41.11569 -8.07665 14044 ft 300 kts 242°
2026-05-07 20:37 41.10693 -8.10176 13681 ft 300 kts 242°
2026-05-07 20:38 41.09820 -8.12685 13297 ft 299 kts 242°
2026-05-07 20:38 41.08947 -8.15185 12922 ft 298 kts 242°
2026-05-07 20:38 41.08078 -8.17672 12571 ft 296 kts 242°
2026-05-07 20:38 41.07216 -8.20138 12211 ft 294 kts 242°
2026-05-07 20:39 41.06360 -8.22581 11851 ft 291 kts 242°
2026-05-07 20:39 41.05508 -8.25016 11482 ft 290 kts 241°
2026-05-07 20:39 41.04935 -8.26652 11249 ft 289 kts 241°
2026-05-07 20:39 41.04092 -8.29059 10875 ft 288 kts 241°
2026-05-07 20:40 41.03251 -8.31460 10490 ft 287 kts 241°
2026-05-07 20:40 41.02627 -8.33977 10109 ft 290 kts 253°
2026-05-07 20:40 41.02214 -8.36580 9712 ft 288 kts 253°
2026-05-07 20:40 41.01804 -8.39145 9298 ft 281 kts 253°
2026-05-07 20:41 41.01403 -8.41641 8919 ft 273 kts 253°
2026-05-07 20:41 41.01015 -8.44050 8523 ft 262 kts 253°
2026-05-07 20:41 41.00642 -8.46367 8147 ft 253 kts 253°
2026-05-07 20:41 41.00281 -8.48603 7783 ft 244 kts 253°
2026-05-07 20:42 40.99947 -8.50760 7443 ft 234 kts 254°
2026-05-07 20:42 40.99638 -8.52841 7220 ft 224 kts 254°
2026-05-07 20:42 40.99350 -8.54817 6922 ft 215 kts 254°
2026-05-07 20:42 40.99065 -8.56744 6511 ft 212 kts 254°
2026-05-07 20:43 40.98839 -8.58662 6064 ft 213 kts 267°
2026-05-07 20:43 40.99287 -8.60514 5690 ft 218 kts 303°
2026-05-07 20:43 41.00498 -8.61725 5267 ft 224 kts 341°
2026-05-07 20:43 41.02026 -8.62097 4889 ft 222 kts 349°
2026-05-07 20:44 41.03563 -8.62482 4468 ft 221 kts 347°
2026-05-07 20:44 41.05061 -8.62895 4063 ft 219 kts 347°
2026-05-07 20:44 41.06538 -8.63309 3692 ft 215 kts 347°
2026-05-07 20:44 41.07976 -8.63704 3393 ft 207 kts 348°
2026-05-07 20:45 41.09352 -8.64072 3033 ft 198 kts 348°
2026-05-07 20:45 41.10668 -8.64420 2758 ft 186 kts 348°
2026-05-07 20:45 41.11877 -8.64737 2535 ft 166 kts 348°
2026-05-07 20:45 41.12943 -8.65015 2309 ft 147 kts 348°
2026-05-07 20:46 41.13908 -8.65267 2115 ft 138 kts 348°
2026-05-07 20:46 41.14838 -8.65510 1933 ft 134 kts 348°
2026-05-07 20:46 41.15747 -8.65746 1750 ft 134 kts 348°
2026-05-07 20:46 41.16666 -8.65988 1590 ft 135 kts 348°
2026-05-07 20:47 41.17586 -8.66244 1447 ft 135 kts 348°
2026-05-07 20:47 41.18508 -8.66477 1277 ft 136 kts 349°
2026-05-07 20:47 41.19441 -8.66725 1049 ft 136 kts 347°
2026-05-07 20:47 41.20344 -8.66964 882 ft 129 kts 349°
2026-05-07 20:48 41.21216 -8.67190 718 ft 127 kts 348°
2026-05-07 20:48 41.22087 -8.67418 538 ft 129 kts 349°
2026-05-07 20:48 41.22969 -8.67643 360 ft 129 kts 349°
2026-05-07 20:48 41.23829 -8.67869 225 ft 117 kts 348°
2026-05-07 20:49 41.24506 -8.68046 207 ft 80 kts 349°
2026-05-07 20:49 41.24931 -8.68160 190 ft 39 kts 348°
2026-05-07 20:49 41.25164 -8.68159 180 ft 32 kts 13°
2026-05-07 20:49 41.25294 -8.68061 175 ft 17 kts 81°
2026-05-07 20:50 41.25267 -8.68012 178 ft 2 kts 175°
2026-05-07 20:50 41.25258 -8.68013 178 ft 2 kts 180°
2026-05-07 20:50 41.25204 -8.68003 181 ft 14 kts 170°
2026-05-07 20:50 41.25073 -8.67967 185 ft 22 kts 168°
2026-05-07 20:51 41.24931 -8.67927 190 ft 20 kts 167°
2026-05-07 20:51 41.24793 -8.67855 206 ft 21 kts 153°
2026-05-07 20:51 41.24666 -8.67805 209 ft 18 kts 172°
2026-05-07 20:51 41.24545 -8.67772 218 ft 17 kts 168°
2026-05-07 20:52 41.24438 -8.67743 219 ft 14 kts 168°
2026-05-07 20:52 41.24340 -8.67717 225 ft 17 kts 167°
2026-05-07 20:52 41.24258 -8.67625 232 ft 15 kts 127°
2026-05-07 20:52 41.24178 -8.67565 237 ft 15 kts 171°
2026-05-07 20:53 41.24040 -8.67532 237 ft 22 kts 168°
2026-05-07 20:53 41.23886 -8.67490 237 ft 23 kts 168°
2026-05-07 20:53 41.23770 -8.67460 237 ft 12 kts 165°
2026-05-07 20:53 41.23754 -8.67407 237 ft 6 kts 33°
2026-05-07 20:54 41.23779 -8.67384 237 ft 2 kts 49°
2026-05-07 20:54 41.23784 -8.67376 237 ft 1 kts 49°
2026-05-07 20:54 41.23786 -8.67374 237 ft 0 kts 49°
2026-05-07 20:54 41.23788 -8.67370 237 ft 1 kts 49°
2026-05-07 20:55 41.23796 -8.67359 237 ft 0 kts 48°